Regional Weather Roundup
Issued by NWS Bismarck, ND

Home | Current Version | Previous Version | Text Only | Print | Product List | Glossary On
Versions: 1 2 3 4 5 6 7 8 9 10 11 12 13 14 15 16 17 18 19 20 21 22 23 24 25 26 27 28 29 30 31 32 33 34 35 36 37 38 39 40 41 42 43 44 45 46 47 48 49 50
000
ASUS43 KBIS 010259
RWRBIS

NWR BROADCAST TEXT
NATIONAL WEATHER SERVICE BISMARCK ND
1000 PM CDT FRI OCT 31 2014

NOTE: "FAIR" INDICATES FEW OR NO CLOUDS BELOW 12,000 FEET WITH NO
SIGNIFICANT WEATHER AND/OR OBSTRUCTIONS TO VISIBILITY.


CITY           SKY/WX    TMP DP  RH WIND       PRES   REMARKS
WILLISTON      CLEAR     41  18  39 SE13G22   29.93F
MINOT          PTCLDY    34  13  41 SE21G30   30.06F
MINOT AFB      NOT AVBL
BISMARCK       PTCLDY    33  15  47 S22       30.14F
DICKINSON      NOT AVBL
GARRISON         N/A     36  17  46 S18G33    30.06F
HETTINGER ARPT PTCLDY    36  13  38 SE18      29.98F
JAMESTOWN      NOT AVBL
BEACH            N/A     37  19  48 SE20G25   29.89F
CARRINGTON     FAIR      28  19  69 SE17      30.21F WCI  16
HARVEY         FAIR      32  16  51 S16G22    30.15F
HAZEN          FAIR      36  10  35 SE17G24   30.08F
LINTON         FAIR      32  18  55 SE17G29   30.17F
MANDAN         FAIR      32  12  43 SE20G28   30.12F
OAKES            N/A     25  21  86 SE13      30.32S WCI  13
$$

CITY           SKY/WX    TMP DP  RH WIND       PRES   REMARKS
GRAND FORKS    CLOUDY    33  20  58 S12       30.34F
GRAND FORKS AF NOT AVBL
DEVILS LAKE    PTCLDY    32  18  55 S22       30.20F WCI  19
FARGO          PTCLDY    33  20  58 S15       30.38S
CANDO          FAIR      34  21  60 S24G31    30.19F
CAVALIER       FAIR      34  19  55 S16G22    30.29F
GRAFTON        FAIR      32  19  59 S16       30.32F
GWINNER        CLEAR     30  21  69 SE12      30.35S
LANGDON        FAIR      32  18  55 S17G23    30.22F
$$

CITY           SKY/WX    TMP DP  RH WIND       PRES   REMARKS
ABERDEEN       PTCLDY    28  17  63 SE12      30.32F WCI  18
MOBRIDGE       PTCLDY    38  18  44 S28G37    30.14F
BUFFALO          N/A     41  21  44 SE14      29.85F
RAPID CITY     PTCLDY    39  28  64 S13       29.99F
GLASGOW        PTCLDY    41  31  67 E14       29.78S
SIDNEY         PTCLDY    43  21  42 SE13      29.91F
WOLF POINT     CLEAR     38  30  73 NE9       29.82F
GLENDIVE       CLEAR     45  28  53 S12       29.87F
MILES CITY     CLEAR     47  32  56 SE16      29.79F
BAKER          CLEAR     42  27  55 SE18      29.87F
$$

CITY           SKY/WX    TMP DP  RH WIND       PRES   REMARKS
BILLINGS       CLOUDY    52  32  46 CALM      29.78F
GREAT FALLS    PTCLDY    48  33  56 SW8       29.72S
$$




USA.gov is the U.S. government's official web portal to all federal, state and local government web resources and services.